Showing default

COSMOS 2432 (GLONASS), 32276

Orbit data source: Space-Track

COSMOS 2432 (GLONASS), 32276 is a Commonwealth of Independent States-origin payload satellite in MEO that was launched on Fri, 26 Oct 2007 UTC via a PROTON-K/DM-2 launch vehicle from the Tyuratam Missile And Space Complex (TTMTR). Payloads include a variety of satellites, spacecraft, and rockets equipped with specific instruments for various scientific and technological missions. These include communications satellites like Starlink; space stations such as the ISS; scientific satellites like the Hubble; Earth observation satellites from companies like Planet Labs, Umbra, and HawkEye 360; GPS; miniature CubeSats for education and research; and military/defense satellites.

Loading next visibility...
COSMOS 2432 (GLONASS) details
Identifier
32276, 2007-052B
Orbit
MEO
Last TLE update1 day ago
Origin
Flag of CISKVR/IACG (CIS)
ManufacturerResehetnev ISS
MissionOperational Defense Navigation
Bus & MotorURAGAN, Unknown motor
Mass1,450 kg wet, ~1,200 kg dry
Launch date (UTC)
2007-10-26 (17 years ago)
Launch vehicle
PROTON-K/DM-2
Launch site
Tyuratam Missile And Space Complex (TTMTR)
Object type
Payload
Rocket body
Debris
Shape & HBRCyl + 1 Ant + 2 Pan, 7.8 m
Radar Cross Section8.467 m², Large (>1 m²)

Expand to show TLE details & history

TLE from 1 day ago
0 COSMOS 2432 (GLONASS)
1 32276U 07052B   24360.37118552 -.00000056  00000-0  00000-0 0  9993
2 32276  65.8738 334.1250 0011817 315.3465 116.0864  2.13103283133604
Epoch: 2024-12-25T08:54Z
Definitive object data (Epoch: 2024-12-25T08:54:30.428Z)
Latitude60.01174°
Longitude156.94773°
Altitude19,152.623 km
Speed3.952 km/s
True Right ascension01h 39m 45s
True Declination59° 58' 12"
Sunlit
Object was in daylight at TLE epoch
Visualization TLE readout
Latitude-19.13252°
Longitude-64.98697°
Altitude19,147.38 km
Speed3.951 km/s
Apparent Right ascension10h 52m 21s
Apparent Declination-32° 52' 46"
Sunlit
Object is in daylight
Visualization observer readout
Local Sidereal Time10:50:41
Azimuth179.633° S
Elevation17.203°
Doppler factor1
Orbital elements
Apogee altitude19,159.512 km
Perigee altitude19,099.228 km
Semi-major axis25,507.507 km
Eccentricity0.0011817
Inclination65.8738°
RAAN334.125°
Arg. of periapsis315.3465°
True anomaly116.20794°
Mean anomaly116.0864°
Eccentric anomaly116.14718°
Mean motion0.53277 °/min
BSTARUnknown
Orbital period675.71 mins
Loading maneuver chart data...
Loading historical data...
Loading historical data...
Loading historical data...
Loading historical data...
Loading historical data...
Loading historical data...
Loading historical data...

COSMOS 2432 (GLONASS) Visibility forecast

Observer location: undefined°, undefined

Span
Click to sort rows by Start time (UTC) header in descending order
Start Az.
Max El. time (UTC)
Max El. Az.
Max El.
End time (UTC)
End Az.
13 mins2024-12-26 11:29:20.107Z179.633° S2024-12-26 11:29:20.107Z179.633° S16.46°2024-12-26 11:42:20.107Z179.622° S
343 mins2024-12-27 04:24:20.107Z275.874° WNW2024-12-27 07:42:20.107Z58.343° ENE43.154°2024-12-27 10:07:20.107Z158.068° S
|